[[{"header":{"parameterUnit":"m.s-1","parameterCategory":1,"la1":30.2991,"la2":30.254,"lo1":-89.0895,"lo2":-89.0444,"dy":0.0017,"dx":0.0017,"nx":28,"ny":28,"refTime":"2026-02-26T03:00:00:Z","depth":0,"parameterNumber":2,"parameterNumberName":"U-component_of_WINDS"},"data":[0,0,0,0,0,0,0,0,0,0,0,0,0,0,0,0,0,0,0,0,0,0,0,0,0,0,0,0,0,0,0,0,0,0,0,0,0,0,0,0,0,0,0,0,0,0,0,0,0,0,0,0,0,0,0,0,0,0,-3.3683,-3.3684,0,-3.3777,-3.3778,-3.3779,-3.3718,-3.3715,-3.3712,-3.3709,-3.3811,-3.3816,-3.3821,0,0,0,0,0,0,0,0,0,0,0,0,0,-3.3456,-3.346,-3.3682,-3.3684,-3.3685,-3.3777,-3.3778,-3.378,-3.3718,-3.3715,-3.3711,-3.3708,-3.3809,-3.3815,-3.3822,0,0,0,0,0,0,0,0,0,0,0,0,0,-3.3553,-3.3462,-3.3682,-3.3665,-3.3665,-3.3777,-3.3778,-3.378,-3.3719,-3.3715,-3.3711,-3.3707,-3.3807,-3.3815,-3.3823,-3.3958,0,0,-3.3847,-3.3851,0,0,0,0,0,0,0,0,-3.3547,-3.3561,-3.3667,-3.3667,-3.3666,-3.3731,-3.3735,-3.384,-3.372,-3.3699,-3.3709,-3.3704,-3.3788,-3.3797,-3.3825,-3.3963,-3.3967,-3.3848,-3.3853,-3.3856,-3.3859,0,0,0,0,0,0,0,-3.3541,-3.3557,-3.372,-3.3668,-3.3668,-3.3655,-3.3664,-3.3755,-3.3766,-3.37,-3.3696,-3.3708,-3.3787,-3.3817,-3.3827,-3.3969,-3.3848,-3.3855,-3.386,-3.3863,-3.4228,-3.4233,0,0,0,0,0,0,-3.3535,-3.3552,-3.3717,-3.3723,-3.3595,-3.3663,-3.3673,-3.3715,-3.3765,-3.3769,-3.3711,-3.3705,-3.3805,-3.3817,-3.383,-3.3995,-3.3856,-3.3864,-3.3868,-3.4224,-3.4229,-3.4235,0,0,0,0,0,0,-3.353,-3.355,-3.3713,-3.3636,-3.3656,-3.3671,-3.3719,-3.3719,-3.3749,-3.3774,-3.3776,-3.3739,-3.3803,-3.3819,-3.3928,-3.3997,-3.3867,-3.3875,-3.4218,-3.4225,-3.4232,-3.4324,0,0,0,0,0,0,-3.3524,-3.3549,-3.3598,-3.3638,-3.366,-3.3807,-3.3723,-3.3724,-3.3762,-3.3754,-3.38,-3.3804,-3.38,-3.3916,-3.3936,-3.4006,-3.3881,-3.4212,-3.4221,-3.423,-3.4315,-3.4333,-3.435,0,0,0,0,0,-3.3516,-3.362,-3.3601,-3.3621,-3.3722,-3.3811,-3.3824,-3.3817,-3.3768,-3.3819,-3.3836,-3.3803,-3.3987,-3.3928,-3.3949,-3.4023,-3.4207,-3.4218,-3.4229,-3.4307,-3.433,-3.4349,0,0,0,0,0,0,-3.3588,-3.3625,-3.3604,-3.3723,-3.3765,-3.38,-3.3864,-3.3841,-3.3897,-3.3888,-3.3877,-3.3889,-3.4003,-3.4024,-3.3957,-3.416,-3.409,-3.4106,-3.4141,-3.4163,-3.4181,-3.4173,-3.3888,0,0,0,0,0,-3.3618,-3.3685,-3.3714,-3.3817,-3.3839,-3.3849,-3.3887,-3.3878,-3.3921,-3.3938,-3.3963,-3.4007,-3.4076,-3.4121,-3.4184,-3.4318,-3.4329,-3.438,-3.4398,-3.4412,-3.4426,-3.4502,-3.4526,-3.4271,-3.4271,-3.4271,0,0,-3.368,-3.3709,-3.3751,-3.3833,-3.3863,-3.3936,-3.3864,-3.3942,-3.3997,-3.3951,-3.4055,-3.4076,-3.4125,-3.4248,-3.4303,-3.4269,-3.4499,-3.4426,-3.4437,-3.4443,-3.4516,-3.454,-3.4562,-3.4278,-3.4277,-3.4276,0,0,-3.3831,-3.3858,-3.3948,-3.3982,-3.403,-3.4036,-3.4058,-3.4099,-3.4111,-3.4216,-3.4184,-3.425,-3.4367,-3.4404,-3.4439,-3.461,-3.4583,-3.4632,-3.4723,-3.4797,-3.4818,-3.4835,-3.4899,-3.4922,-3.4646,-3.4646,-3.4646,0,-3.3902,-3.4008,-3.3998,-3.4081,-3.4119,-3.4081,-3.4175,-3.4208,-3.4275,-3.4304,-3.4264,-3.4413,-3.4443,-3.4577,-3.4619,-3.4647,-3.4675,-3.4626,-3.4815,-3.4833,-3.485,-3.491,-3.4934,-3.4652,-3.4651,-3.465,-3.465,0,-3.4096,-3.4171,-3.4238,-3.4304,-3.4351,-3.4438,-3.4444,-3.4493,-3.4482,-3.4494,-3.4604,-3.464,-3.4712,-3.4743,-3.4732,-3.4877,-3.4855,-3.4816,-3.4745,-3.488,-3.4937,-3.496,-3.466,-3.4658,-3.4656,-3.4655,0,0,-3.4291,-3.4354,-3.4379,-3.441,-3.4463,-3.4522,-3.461,-3.4681,-3.4724,-3.4773,-3.4849,-3.4952,-3.4917,-3.4957,-3.4951,-3.5016,-3.5154,-3.497,-3.4971,-3.5005,-3.532,-3.5349,-3.5376,-3.5136,-3.5141,-3.5144,-3.5316,0,-3.4446,-3.4598,-3.4594,-3.4737,-3.4809,-3.4776,-3.4854,-3.4897,-3.4912,-3.4977,-3.4994,-3.5067,-3.5015,-3.5039,-3.5103,-3.5124,-3.5217,-3.5111,-3.521,-3.5213,-3.5199,-3.5405,-3.5436,-3.5596,-3.5338,-3.5342,-3.5345,0,-3.4646,-3.4703,-3.4853,-3.49,-3.4929,-3.4999,-3.5066,-3.5127,-3.5177,-3.5184,-3.5231,-3.5215,-3.5309,-3.5237,-3.5368,-3.5296,-3.5337,-3.5354,-3.536,-3.5369,-3.5287,-3.5422,-3.5647,-3.5671,-3.5379,-3.5377,-3.5374,0,-3.4777,-3.4891,-3.4996,-3.5024,-3.508,-3.5131,-3.5157,-3.5202,-3.5246,-3.5306,-3.5335,-3.5405,-3.5444,-3.55,-3.5507,-3.5452,-3.564,-3.5567,-3.5651,-3.5651,-3.5691,-3.5688,-3.5927,-3.5716,-3.5716,-3.5715,-3.5715,0,-3.4951,-3.5044,-3.5056,-3.5121,-3.5226,-3.5223,-3.5329,-3.5351,-3.5393,-3.5464,-3.5441,-3.5508,-3.5512,-3.5583,-3.5588,-3.5698,-3.5715,-3.5726,-3.5726,-3.5728,-3.5727,-3.5755,-3.5744,-3.5722,-3.572,-3.5719,-3.5718,0,-3.5113,-3.5124,-3.5237,-3.5283,-3.5297,-3.5373,-3.5413,-3.5477,-3.5491,-3.5582,-3.5604,-3.5627,-3.571,-3.5722,-3.5818,-3.5822,-3.5955,-3.5943,-3.5938,-3.5936,-3.602,-3.6013,-3.6285,-3.6322,-3.6086,-3.6089,-3.6091,0,-3.5223,-3.5295,-3.5349,-3.5395,-3.5424,-3.5497,-3.5543,-3.5545,-3.5594,-3.5659,-3.5716,-3.5797,-3.5861,-3.5995,-3.6022,-3.6098,-3.6089,-3.6179,-3.61,-3.6101,-3.6093,-3.6088,-3.6097,-3.6194,-3.6197,-3.6199,-3.6201,0,-3.5418,-3.5422,-3.5487,-3.5558,-3.5613,-3.5668,-3.572,-3.576,-3.5769,-3.5826,-3.591,-3.596,-3.6061,-3.6142,-3.6218,-3.6247,-3.6228,-3.6226,-3.625,-3.6252,-3.6247,-3.6253,-3.5981,-3.6219,-3.6217,-3.6216,-3.6215,-3.6214,-3.5559,-3.5623,-3.5672,-3.5748,-3.5788,-3.5838,-3.5902,-3.5925,-3.5995,-3.6076,-3.6074,-3.6168,-3.6221,-3.632,-3.6356,-3.6432,-3.6402,-3.6436,-3.6445,-3.6453,-3.6463,-3.6235,-3.6445,-3.6445,-3.6444,-3.6444,-3.6443,0,-3.5755,-3.5786,-3.5856,-3.593,-3.5992,-3.5967,-3.6025,-3.6078,-3.6161,-3.6212,-3.6276,-3.6376,-3.6456,-3.6491,-3.6571,-3.6625,-3.6619,-3.6646,-3.6643,-3.6651,-3.6483,-3.6455,-3.6651,-3.6651,-3.6651,-3.6651,-3.6651,-3.6651,-3.5863,-3.5971,-3.5981,-3.6111,-3.6142,-3.6233,-3.6268,-3.6317,-3.6358,-3.647,-3.6536,-3.6559,-3.6605,-3.6689,-3.6763,-3.6772,-3.6803,-3.6836,-3.6841,-3.6683,-3.6662,-3.6642,-3.6616,-3.6842,-3.6843,-3.7002,-3.7004,-3.7005]},{"header":{"parameterUnit":"m.s-1","parameterCategory":1,"la1":30.2991,"la2":30.254,"lo1":-89.0895,"lo2":-89.0444,"dy":0.0017,"dx":0.0017,"nx":28,"ny":28,"refTime":"2026-02-26T03:00:00:Z","depth":0,"parameterNumber":3,"parameterNumberName":"V-component_of_WINDS"},"data":[0,0,0,0,0,0,0,0,0,0,0,0,0,0,0,0,0,0,0,0,0,0,0,0,0,0,0,0,0,0,0,0,0,0,0,0,0,0,0,0,0,0,0,0,0,0,0,0,0,0,0,0,0,0,0,0,0,0,0.9578,0.9578,0,0.953,0.9529,0.9529,0.9508,0.9508,0.9509,0.9509,0.9455,0.9454,0.9452,0,0,0,0,0,0,0,0,0,0,0,0,0,0.965,0.9649,0.9578,0.9577,0.9577,0.953,0.9529,0.9529,0.9508,0.9508,0.9509,0.9509,0.9456,0.9454,0.9452,0,0,0,0,0,0,0,0,0,0,0,0,0,0.9612,0.9649,0.9578,0.9561,0.9559,0.953,0.9529,0.9528,0.9508,0.9508,0.9509,0.9509,0.9456,0.9454,0.9452,0.9435,0,0,0.9445,0.9444,0,0,0,0,0,0,0,0,0.9614,0.9609,0.9564,0.9562,0.956,0.9525,0.9535,0.9497,0.9508,0.9527,0.9509,0.9509,0.9478,0.9474,0.9465,0.9432,0.943,0.9445,0.9443,0.9442,0.9442,0,0,0,0,0,0,0,0.9617,0.9611,0.9559,0.9564,0.9561,0.9555,0.955,0.9528,0.9502,0.9526,0.9524,0.9519,0.9477,0.9467,0.9463,0.9429,0.9445,0.9443,0.9441,0.9441,0.9382,0.9382,0,0,0,0,0,0,0.9623,0.9614,0.956,0.9557,0.9588,0.9554,0.9548,0.9536,0.9503,0.9498,0.9519,0.9518,0.9471,0.9466,0.9461,0.944,0.9442,0.944,0.9439,0.9383,0.9382,0.9382,0,0,0,0,0,0,0.9624,0.9618,0.9562,0.9585,0.9578,0.9552,0.9539,0.9535,0.9525,0.9498,0.9493,0.9513,0.9471,0.9464,0.9442,0.9438,0.9439,0.9437,0.9383,0.9382,0.9382,0.9397,0,0,0,0,0,0,0.9627,0.9619,0.9613,0.9585,0.9577,0.9545,0.9539,0.9534,0.9522,0.952,0.9491,0.9486,0.947,0.9446,0.944,0.9435,0.9435,0.9383,0.9383,0.9382,0.9397,0.9397,0.9398,0,0,0,0,0,0.9629,0.9617,0.9612,0.9606,0.9568,0.9545,0.9539,0.9522,0.9521,0.9515,0.9497,0.9487,0.944,0.9444,0.9437,0.9431,0.9383,0.9383,0.9382,0.9396,0.9397,0.9398,0,0,0,0,0,0,0.9643,0.9613,0.9607,0.9587,0.9569,0.9541,0.9532,0.9523,0.9504,0.9503,0.9482,0.9476,0.9455,0.9441,0.9446,0.9414,0.9411,0.9409,0.9424,0.9424,0.9424,0.9428,0.9434,0,0,0,0,0,0.9644,0.9628,0.9603,0.9587,0.9578,0.9557,0.9546,0.9535,0.9514,0.9506,0.9487,0.9467,0.9448,0.9435,0.9416,0.9395,0.9388,0.9388,0.9388,0.9389,0.9387,0.9376,0.9376,0.9381,0.9381,0.9381,0,0,0.9644,0.9627,0.9617,0.9589,0.9574,0.9557,0.955,0.9533,0.952,0.9503,0.9481,0.9467,0.9443,0.9422,0.9412,0.9409,0.9385,0.9388,0.9389,0.9387,0.9376,0.9375,0.9375,0.938,0.9381,0.9381,0,0,0.9638,0.9623,0.9609,0.9594,0.9572,0.9558,0.9555,0.953,0.952,0.9498,0.9486,0.947,0.9437,0.9421,0.9408,0.9399,0.9389,0.9393,0.9395,0.9384,0.9384,0.9384,0.938,0.9379,0.9392,0.9392,0.9392,0,0.9641,0.9617,0.9602,0.9586,0.9574,0.956,0.9545,0.9531,0.9503,0.9495,0.9494,0.9453,0.9436,0.9411,0.941,0.94,0.9395,0.9396,0.9386,0.9385,0.9384,0.9381,0.938,0.9392,0.9392,0.9392,0.9392,0,0.9623,0.9607,0.9597,0.9573,0.956,0.9545,0.9527,0.9515,0.9506,0.9493,0.9472,0.9451,0.9428,0.9421,0.9411,0.9396,0.9395,0.939,0.9386,0.9385,0.9381,0.938,0.9393,0.9393,0.9393,0.9393,0,0,0.9621,0.9591,0.9587,0.9577,0.9553,0.9539,0.9524,0.9503,0.9494,0.9476,0.9462,0.9436,0.9431,0.9417,0.9405,0.9396,0.9391,0.9392,0.9391,0.9393,0.9373,0.9377,0.9376,0.9385,0.9385,0.9384,0.9375,0,0.9611,0.9584,0.9571,0.9549,0.9534,0.9522,0.9508,0.9492,0.9479,0.9464,0.945,0.9432,0.9427,0.9419,0.941,0.9393,0.9387,0.9394,0.9371,0.937,0.9377,0.9374,0.9377,0.937,0.9374,0.9374,0.9373,0,0.9595,0.9579,0.9557,0.9536,0.9529,0.9517,0.9498,0.9484,0.9465,0.9457,0.9443,0.9432,0.9415,0.9414,0.939,0.9396,0.9386,0.9377,0.9376,0.9372,0.9371,0.937,0.9367,0.9366,0.9371,0.9371,0.9371,0,0.9596,0.9569,0.9553,0.9544,0.9519,0.9512,0.9501,0.9482,0.9471,0.9454,0.9447,0.9428,0.9417,0.9402,0.9386,0.9387,0.9364,0.9361,0.9356,0.9357,0.9351,0.9351,0.9346,0.9346,0.9346,0.9346,0.9346,0,0.9586,0.9572,0.9553,0.9543,0.9528,0.9513,0.9498,0.9486,0.9471,0.9457,0.9445,0.9433,0.9413,0.9398,0.9386,0.9369,0.9364,0.9356,0.9353,0.9357,0.9358,0.9349,0.9349,0.9345,0.9345,0.9345,0.9345,0,0.9584,0.957,0.9552,0.9531,0.9526,0.9516,0.9497,0.9487,0.9475,0.9459,0.9454,0.9435,0.9417,0.94,0.9376,0.9367,0.935,0.9346,0.9356,0.9355,0.935,0.9351,0.9339,0.9336,0.9338,0.9338,0.9338,0,0.9578,0.9568,0.9547,0.9538,0.9528,0.9514,0.9504,0.9489,0.9479,0.9458,0.945,0.9432,0.9416,0.9388,0.9372,0.9353,0.9348,0.9346,0.9345,0.935,0.9348,0.9349,0.9348,0.9345,0.9345,0.9345,0.9346,0,0.9569,0.9563,0.9549,0.9534,0.9522,0.9508,0.9494,0.9488,0.9471,0.9459,0.9442,0.943,0.9407,0.9389,0.9369,0.9357,0.9348,0.9346,0.9344,0.9347,0.9354,0.9351,0.9357,0.9346,0.9346,0.9346,0.9346,0.9346,0.9564,0.9555,0.954,0.9525,0.9514,0.9502,0.9491,0.9479,0.9465,0.9446,0.9439,0.9421,0.9404,0.9377,0.9366,0.9351,0.9349,0.9346,0.9345,0.9344,0.9345,0.9358,0.9348,0.9347,0.9347,0.9347,0.9347,0,0.9554,0.9545,0.9532,0.9514,0.9502,0.9498,0.9482,0.9473,0.9458,0.9444,0.943,0.9411,0.9394,0.9377,0.9359,0.9351,0.9347,0.9347,0.9347,0.9344,0.9348,0.9352,0.9351,0.9351,0.9351,0.9351,0.9351,0.9351,0.9548,0.9533,0.9526,0.9505,0.9495,0.948,0.9472,0.946,0.9449,0.9429,0.9416,0.9406,0.939,0.9372,0.9356,0.9352,0.9345,0.9347,0.9341,0.9344,0.9344,0.9344,0.9347,0.9346,0.9346,0.9338,0.9338,0.9338]}]]